Tracking 19706 objects as of 17-Jun-2019
HD Live streaming from Space Station
objects crossing your sky now

DELTA 1 DEB

Track DELTA 1 DEB now!
10-day predictions


NORAD ID: 7058
Int'l Code: 1973-086BA
Perigee: 1,449.8 km
Apogee: 1,467.6 km
Inclination: 101.6 °
Period: 114.9 minutes
Semi major axis: 7829 km
RCS: 0.0607 m2 (small)
Launch date: November 6, 1973
Source: United States (US)
Launch site: AIR FORCE WESTERN TEST RANGE (AFWTR)

Note: This is SATELLITE DEBRIS
aabbcc
Your satellite tracking list
Your tracking list is empty




NASA's NSSDC Master Catalog

Two Line Element Set (TLE):
1  7058U 73086BA  19167.88465448  .00000307  00000-0  22116-2 0  9999
2  7058 101.5837 150.8533 0011384  53.4647  14.4333 12.53101805 78917
Source of the keplerian elements: AFSPC